Theta_e
298 298 298 300 298 296 297 297 298 296 298 299 299 297 300 299 292 289 299 301 298 296 297 298 299 299 299 298 299 300 302 304 305 306 306 305 304 305 305 305 305 306 305 306 307 306 307 308 308 309 310 312 315 320 325 324 325 326 328 328 328 328 328 328 329 330 332 331 332 332 328 328 327 326 327 326 330 330 330 329 327 326 326 326 325 325 325
296 297 298 299 297 297 297 298 297 298 298 299 299 297 299 300 299 300 301 298 294 295 295 296 297 300 300 300 300 301 300 301 302 303 303 303 303 302 301 302 303 304 304 305 306 305 305 305 306 307 307 308 311 313 316 322 326 327 328 328 327 328 328 327 327 327 327 327 328 330 330 328 326 327 326 328 329 329 329 327 325 325 324 323 322 322 321
292 297 298 298 297 298 297 296 297 297 297 299 297 299 298 299 298 298 298 296 292 295 298 297 298 299 299 299 298 298 299 299 299 300 301 301 301 301 301 301 302 303 304 304 304 304 303 303 303 305 305 306 309 311 314 318 321 325 327 326 325 325 325 326 326 325 324 325 327 327 329 329 328 327 327 328 328 327 327 326 324 323 322 320 320 320 321
290 296 296 297 297 297 296 293 293 293 294 292 295 293 296 295 294 296 297 295 291 294 297 297 297 297 296 296 296 296 297 298 298 297 298 299 300 300 300 301 301 302 302 302 301 301 302 302 303 303 303 305 307 309 311 314 315 317 318 323 324 324 325 325 325 324 324 325 325 325 326 326 326 326 326 327 324 324 324 324 323 323 321 320 320 321 323
288 295 297 296 296 294 290 286 289 292 294 295 296 297 296 295 297 294 291 293 296 296 297 294 294 294 294 295 296 296 296 297 297 297 297 298 299 299 299 299 300 300 301 301 301 301 301 301 302 303 304 304 305 309 311 313 315 313 314 315 314 314 317 321 321 320 320 320 320 320 321 322 323 322 322 323 323 324 325 325 324 321 322 323 323 325 324
288 293 296 296 291 283 283 290 295 294 292 292 291 291 293 295 296 295 297 297 297 296 295 293 292 292 292 294 295 298 297 296 297 297 297 297 298 298 299 299 300 300 300 301 301 301 302 302 303 304 304 304 305 308 310 312 312 312 313 312 311 310 312 313 314 315 315 315 314 314 316 318 319 319 320 319 321 322 324 324 324 323 323 323 322 321 318
287 292 293 288 281 283 290 297 297 297 296 295 293 293 293 293 295 296 296 296 296 296 295 293 292 293 294 295 295 295 297 299 298 296 297 297 297 297 298 299 300 300 300 300 300 301 301 302 303 304 303 304 305 306 307 308 309 309 309 310 310 309 309 310 311 311 312 312 312 312 311 312 314 315 315 315 315 317 320 323 324 321 320 318 316 315 314
290 289 288 279 280 288 293 295 296 297 298 295 295 292 292 293 294 295 292 293 294 294 293 293 294 293 293 294 294 295 296 298 298 297 296 296 296 296 297 297 298 299 299 299 300 301 303 302 301 302 302 304 303 303 305 305 305 306 306 306 306 306 306 307 308 309 309 309 310 310 309 309 308 309 310 310 311 312 314 315 317 319 320 318 316 314 312
284 287 287 285 288 289 290 291 291 291 288 288 288 285 288 292 294 295 294 293 293 293 292 293 294 295 294 291 291 295 296 297 298 298 298 298 297 298 298 298 298 299 299 299 301 302 302 302 302 301 302 303 303 302 302 302 303 304 304 304 304 304 305 305 307 308 308 307 307 307 308 308 307 308 307 307 309 311 311 312 312 313 313 315 314 313 311
290 287 284 283 283 282 283 290 294 296 295 294 294 291 288 293 294 296 293 290 289 291 293 293 294 296 292 287 288 293 295 296 296 298 298 299 299 298 298 298 299 300 300 301 301 300 300 301 302 303 303 302 302 301 301 301 301 301 301 302 303 304 304 305 306 307 307 307 307 307 307 306 306 307 308 309 309 311 310 309 309 308 308 308 309 311 311
288 286 284 283 281 281 288 290 294 296 296 296 295 290 286 291 293 294 293 292 292 292 292 293 294 293 287 285 287 292 295 295 297 296 297 297 297 297 297 298 297 297 298 299 300 300 298 298 300 302 303 302 300 298 299 300 300 300 300 300 300 301 302 303 304 305 306 307 307 306 306 306 307 307 308 308 307 307 307 308 307 307 305 305 305 306 307
288 287 285 281 284 282 288 292 294 295 296 296 292 283 282 289 293 293 293 292 292 293 293 293 290 289 285 285 287 294 296 296 296 295 295 296 296 297 297 298 298 298 298 298 297 298 297 297 299 300 301 300 300 299 298 299 300 300 300 301 302 302 303 304 304 304 303 302 303 303 303 304 305 306 307 306 307 307 307 306 306 308 307 307 306 305 306
288 285 285 285 285 289 292 293 295 295 296 294 285 280 283 291 292 293 293 293 293 293 292 293 286 285 288 289 293 295 295 295 295 296 296 296 295 295 296 297 297 297 297 297 296 297 298 299 298 299 299 299 298 298 299 298 297 299 302 303 303 302 302 302 301 302 302 302 302 302 303 303 303 304 304 304 306 307 307 306 307 307 307 306 305 306 305
286 287 285 283 284 288 294 296 296 297 293 284 282 288 294 293 292 293 293 291 291 290 289 288 287 288 292 294 296 295 295 294 295 295 295 296 296 296 296 297 298 298 297 297 297 297 298 299 299 299 299 298 297 297 297 297 297 298 299 300 300 301 300 300 301 301 301 302 303 303 304 305 304 304 304 305 306 306 306 306 306 305 305 306 306 305 305
286 286 285 283 279 287 294 295 296 295 287 286 292 294 293 293 291 291 291 291 291 291 289 290 290 291 292 293 294 295 295 295 295 295 295 295 295 295 295 295 296 296 296 297 297 298 297 298 299 299 299 298 298 298 297 298 299 299 299 300 299 299 300 300 300 300 301 303 303 304 303 304 304 304 304 305 306 307 306 306 306 306 306 307 306 306 306
283 283 280 279 284 289 294 294 287 291 293 295 296 295 291 292 292 290 290 291 292 292 291 291 291 292 292 292 294 295 295 295 296 296 296 296 297 296 296 296 296 296 296 297 296 297 298 298 298 298 298 297 298 298 298 301 301 302 302 302 301 300 300 300 301 301 301 301 302 303 304 304 303 303 304 304 304 305 306 306 306 305 304 305 305 306 306
286 283 284 288 292 294 295 296 295 295 297 297 297 295 293 291 291 293 290 290 292 293 292 292 292 292 293 293 294 294 295 295 295 295 295 296 296 296 295 296 296 296 296 296 297 298 298 298 298 298 298 297 297 298 300 302 301 301 301 301 301 301 301 301 301 301 302 302 302 302 303 303 303 302 303 305 304 304 305 305 305 304 304 305 305 305 304
293 293 293 295 294 295 296 297 297 296 296 297 297 295 293 293 294 294 292 293 293 294 294 292 293 293 294 295 295 295 296 297 297 299 298 296 297 298 297 297 297 297 297 297 297 297 298 299 299 299 299 298 297 298 300 301 301 302 302 301 301 301 301 300 300 301 302 302 302 303 303 302 302 303 303 303 304 304 304 304 305 304 302 302 302 304 304
289 283 294 293 293 296 297 296 298 299 298 297 297 295 294 294 295 295 296 296 295 295 295 294 293 294 296 296 296 296 296 296 297 297 298 298 298 298 298 298 298 298 298 297 297 297 297 298 298 299 299 299 300 300 300 301 301 302 302 301 300 300 301 301 302 301 300 300 302 302 303 303 303 303 303 304 304 303 304 304 305 303 303 302 302 301 301
287 287 292 294 295 296 297 297 296 296 297 298 298 297 297 297 297 297 296 296 295 296 295 295 294 295 295 295 295 294 295 295 296 296 296 296 297 297 298 299 299 299 298 297 297 297 297 298 298 299 299 299 300 301 301 301 302 302 301 301 301 301 301 301 301 302 302 295 299 303 302 301 300 301 303 304 302 299 299 300 301 303 304 302 302 303 303
291 294 295 294 295 295 295 297 298 298 298 298 298 298 298 297 297 296 297 297 297 296 297 297 296 295 294 295 294 292 292 293 293 294 295 297 297 297 297 298 298 298 298 297 297 297 298 299 299 300 300 300 300 301 301 301 302 301 300 299 300 300 300 300 301 301 302 302 301 302 303 302 299 299 299 300 301 301 298 297 296 297 300 300 299 301 303
287 288 291 295 288 287 292 295 297 297 298 298 298 298 298 298 297 297 296 297 298 298 298 297 296 295 295 295 294 293 294 294 294 295 295 296 296 297 298 299 298 298 298 298 297 297 298 299 300 299 300 300 301 301 301 301 301 300 300 300 300 300 299 298 298 300 301 300 301 301 301 302 300 297 289 289 295 299 298 290 287 288 290 295 296 298 300
286 292 294 295 295 294 295 296 298 298 299 298 297 296 297 298 299 298 297 296 296 296 296 297 296 294 294 294 295 294 294 294 295 296 296 295 296 297 297 297 298 298 297 297 297 297 298 299 299 299 299 300 300 301 301 301 301 301 300 299 299 299 299 298 296 298 299 299 300 300 301 300 302 298 299 295 287 288 291 290 290 288 288 287 287 288 293
294 296 295 296 295 293 295 297 298 298 299 298 297 298 299 298 298 298 298 298 296 296 296 297 297 296 296 296 296 294 295 295 296 295 296 296 297 296 297 297 297 297 297 297 297 297 298 298 299 299 299 300 300 301 301 301 301 301 300 299 299 299 299 299 299 298 299 299 299 299 300 300 300 300 300 300 297 290 288 289 289 288 288 288 288 288 288
293 297 297 297 297 297 298 299 299 299 299 298 297 297 298 297 297 298 298 297 298 297 296 295 296 297 296 296 296 295 295 295 295 294 294 294 295 296 297 297 296 296 296 297 298 298 298 298 298 298 298 299 300 301 301 301 301 300 300 299 299 298 298 299 299 299 298 299 299 300 300 300 301 300 299 298 299 299 294 288 288 289 289 289 288 288 289
298 297 298 298 298 297 298 297 297 297 298 298 297 296 297 298 298 298 297 297 297 297 296 296 296 297 297 296 296 296 296 295 294 295 297 296 296 297 297 297 297 297 298 298 298 298 298 298 297 298 298 298 299 300 301 301 301 300 300 300 299 298 297 297 298 299 299 299 299 299 300 299 299 299 299 299 299 298 298 296 295 292 289 288 289 288 288
298 298 297 295 294 295 296 294 294 298 298 298 298 297 297 298 297 297 298 298 298 298 297 297 296 297 297 296 295 295 295 295 296 296 296 296 296 296 297 297 297 298 297 298 297 296 295 296 296 297 297 298 299 300 300 301 300 300 300 300 300 295 289 293 298 299 299 299 299 299 298 299 299 299 299 298 298 297 297 298 297 297 297 295 291 289 295
298 298 298 293 292 293 295 296 297 297 297 297 297 296 297 297 297 296 295 295 296 297 297 297 297 296 296 296 296 295 295 296 295 295 296 296 296 297 297 298 298 298 297 297 297 297 297 297 297 297 297 298 299 299 300 301 301 300 300 300 299 299 300 298 299 299 299 299 299 299 299 299 299 298 297 297 297 298 297 297 297 297 298 299 299 291 290
297 297 298 297 297 297 297 297 297 297 296 297 297 297 297 295 295 295 295 295 296 296 295 296 297 297 297 296 296 296 295 295 295 295 296 297 297 297 297 297 297 296 296 296 297 298 297 297 297 297 298 299 299 300 300 300 300 300 300 300 299 299 299 298 298 299 298 298 298 297 293 295 297 298 297 298 296 297 297 297 296 298 298 299 299 298 294
297 298 297 297 297 297 296 295 295 295 296 296 296 295 296 295 294 294 294 295 295 295 296 297 296 296 297 296 296 296 295 295 295 296 296 296 297 297 296 296 295 295 296 297 297 297 297 297 297 297 297 299 299 299 299 300 300 300 300 300 299 299 299 297 297 298 299 298 297 292 295 297 298 298 297 297 297 296 295 293 295 294 297 298 294 297 296
297 297 297 297 296 296 295 295 295 295 295 295 296 295 296 296 295 294 295 295 296 296 297 296 296 296 296 296 297 297 297 297 296 296 297 297 297 295 295 294 293 292 293 295 297 298 297 297 297 297 299 299 299 299 299 300 300 301 301 300 300 291 288 289 292 296 297 297 296 297 297 298 296 295 293 294 295 295 295 296 295 294 294 297 297 296 296
296 297 297 296 296 295 294 295 295 295 295 296 295 295 295 295 295 295 295 295 296 296 296 296 296 296 297 298 298 297 297 296 296 297 297 295 291 289 292 294 294 292 295 295 296 297 297 297 297 298 299 300 299 298 298 298 300 300 300 296 299 298 294 290 295 295 295 294 296 296 295 297 297 296 295 294 295 294 295 292 293 293 294 293 294 296 295
294 293 293 294 294 294 294 295 294 295 295 295 295 296 296 297 297 296 296 296 297 296 297 296 297 298 298 298 297 297 296 293 291 291 291 287 287 287 289 294 294 295 295 296 297 297 298 297 297 299 299 299 299 299 299 299 300 300 300 300 299 298 293 293 294 296 295 297 297 296 297 296 296 296 296 294 295 294 293 294 294 293 294 295 295 296 293
296 295 295 296 295 294 294 294 295 295 296 296 296 296 297 297 297 297 297 297 297 297 298 297 298 298 296 295 294 294 290 290 291 291 287 287 286 287 292 294 295 295 296 296 298 297 297 298 298 298 299 299 299 299 299 299 300 300 300 299 298 297 298 298 297 296 296 295 296 296 296 296 296 296 294 293 294 295 293 293 293 293 293 294 295 295 290
297 297 297 297 297 296 296 296 296 295 295 295 296 296 297 297 297 297 296 296 297 298 299 299 298 293 291 291 289 288 287 289 289 288 287 287 288 287 292 294 294 294 294 295 296 298 299 299 299 298 298 298 298 299 300 301 301 300 300 300 299 298 298 298 297 296 297 296 297 297 296 296 296 293 293 294 295 293 293 292 293 293 293 292 294 295 293
297 297 297 297 297 297 297 297 297 297 297 296 296 296 296 296 297 297 297 298 299 299 299 298 296 293 288 287 288 286 286 288 288 288 287 287 287 288 291 293 293 292 293 294 297 299 299 299 287 285 297 298 299 299 300 301 301 300 301 299 298 299 297 296 297 296 296 296 296 297 296 293 293 293 294 296 295 295 294 294 292 293 293 292 293 294 292
297 297 297 297 297 297 298 297 297 297 297 297 297 296 296 297 297 299 298 298 298 298 298 298 297 294 290 288 289 288 288 288 291 291 290 288 288 288 289 289 292 293 293 293 296 299 299 297 287 284 293 297 299 300 302 290 300 301 300 299 299 298 297 297 297 297 296 297 296 296 293 293 296 296 294 295 295 295 293 293 293 294 291 293 293 292 292
297 297 297 297 297 297 297 298 298 298 297 297 297 296 297 298 298 298 298 299 298 299 299 299 297 297 296 290 288 287 287 287 286 284 285 284 288 288 291 291 291 292 291 291 297 298 299 293 284 292 298 299 299 301 298 288 289 298 300 300 299 298 297 297 297 296 295 297 296 297 296 295 294 296 295 295 295 294 293 294 292 293 293 293 293 292 292
297 298 298 298 298 297 297 297 298 298 297 297 297 297 298 298 298 299 298 298 299 299 299 298 298 297 297 296 295 293 288 286 286 286 286 286 290 291 291 293 294 295 295 296 295 297 298 297 299 299 299 300 300 302 294 285 285 298 300 300 299 298 296 297 296 295 295 295 295 295 295 295 296 295 295 294 295 293 292 293 293 293 293 293 293 293 292
296 296 296 297 296 297 297 297 297 297 297 298 297 297 298 297 298 298 298 297 299 297 298 298 297 296 296 296 296 296 297 295 290 287 287 290 293 294 295 295 297 298 296 290 295 298 294 288 294 299 300 300 301 301 299 295 293 297 297 298 298 299 297 296 296 295 296 296 295 291 295 295 295 294 293 293 294 293 293 293 293 293 293 293 294 294 293
296 296 297 297 296 297 297 297 296 297 297 297 297 299 299 299 298 298 297 298 298 299 299 299 297 296 296 296 296 297 298 297 297 296 295 294 293 293 292 292 296 297 297 295 295 295 293 293 297 299 301 300 300 295 298 294 298 297 297 297 297 299 297 296 296 297 295 295 294 295 295 295 293 293 293 294 293 293 293 294 294 293 294 293 293 293 293
297 297 296 296 296 296 297 297 297 297 297 298 298 298 299 300 299 298 298 299 299 299 298 298 294 297 297 297 298 297 298 298 298 298 298 295 294 292 292 293 296 296 291 292 292 292 295 296 297 294 299 297 297 290 291 295 296 297 298 297 296 296 296 296 296 296 295 295 296 296 294 294 295 294 293 294 293 294 293 293 293 293 294 294 293 293 293
297 297 296 296 296 296 297 296 296 297 297 298 298 298 300 300 300 299 298 298 298 298 298 298 298 295 297 297 297 297 297 298 298 298 298 299 299 298 296 296 297 296 287 292 293 295 295 297 297 299 293 295 298 286 287 296 296 296 295 295 295 295 296 296 296 295 296 296 295 295 295 294 294 294 293 293 293 294 293 293 293 293 293 294 294 294 293
297 297 297 296 296 297 297 296 297 297 296 297 299 300 300 300 300 299 299 298 298 297 298 298 298 298 297 298 297 297 297 297 295 296 296 296 297 298 299 298 298 293 287 293 293 294 294 294 296 295 288 288 285 286 296 297 297 296 297 296 296 296 296 296 297 296 295 294 294 295 295 294 294 293 294 293 293 293 293 293 294 294 294 294 294 294 294
297 297 297 297 297 297 297 296 296 296 297 298 299 299 299 299 299 300 299 299 298 298 296 298 298 298 298 298 297 298 298 298 297 299 296 294 294 295 297 293 296 295 292 290 293 293 294 296 294 287 289 287 286 287 296 296 296 295 295 294 295 296 295 295 295 295 295 295 296 294 294 295 295 294 294 294 292 293 293 292 293 294 293 293 293 293 293
297 298 298 293 297 297 297 297 298 298 298 297 297 297 298 299 300 300 300 299 299 299 299 299 299 299 299 299 298 299 299 299 299 300 298 300 296 296 296 293 296 293 288 287 294 293 295 285 285 286 285 285 286 292 295 294 295 296 295 295 294 293 294 295 295 296 295 294 295 295 295 295 296 295 295 293 294 293 293 292 292 294 295 294 294 294 294
297 297 297 297 297 297 297 298 298 298 297 297 296 297 298 299 299 300 300 300 300 299 300 300 300 300 301 300 298 297 297 298 298 300 299 300 299 296 293 291 289 287 289 294 295 296 295 294 288 284 285 285 285 293 294 295 295 295 295 295 294 295 295 295 295 295 296 296 294 294 292 293 294 296 295 294 294 294 294 293 293 294 293 293 293 292 292
296 296 297 297 297 297 297 297 297 296 296 295 297 297 298 299 299 299 300 300 300 300 301 301 300 300 300 300 301 300 299 296 294 295 298 301 301 299 298 299 295 290 289 289 289 289 283 284 284 285 285 284 289 294 294 295 295 295 295 296 295 295 294 294 296 296 295 295 295 295 295 295 294 294 294 294 294 294 294 293 293 292 291 293 291 293 294
297 297 297 297 297 297 296 296 295 294 296 296 296 296 297 297 297 298 298 299 299 299 298 298 299 298 299 298 299 302 300 300 299 296 299 299 298 299 296 290 286 286 290 295 296 295 287 285 285 285 284 285 293 294 295 295 294 294 293 294 293 293 292 294 295 296 296 295 295 295 296 295 295 295 293 292 293 293 293 293 294 294 294 293 293 292 293
297 297 296 296 296 296 296 295 295 296 296 297 296 297 298 297 297 297 297 298 299 296 297 297 298 298 298 298 299 299 300 300 300 300 299 298 298 298 296 297 295 290 290 295 297 294 286 283 285 285 288 293 294 294 295 294 295 294 295 294 292 292 292 295 292 293 295 295 296 295 294 294 295 293 292 294 293 293 294 292 294 291 288 291 293 292 293
296 295 297 295 296 296 297 297 297 297 297 297 297 297 296 297 297 295 297 296 297 296 296 296 296 297 299 298 297 298 299 299 299 294 297 298 297 294 293 295 295 291 294 292 294 294 292 293 293 291 291 292 294 294 294 293 293 292 290 291 293 293 294 294 293 295 296 296 296 295 295 294 294 294 293 293 292 292 293 292 292 293 293 293 294 294 293
296 297 297 297 297 297 297 297 298 298 298 297 298 297 297 297 296 297 297 292 296 297 296 295 294 297 297 296 296 298 298 298 297 297 295 295 297 297 294 291 296 293 293 293 294 296 297 294 291 289 290 293 294 294 290 288 289 290 290 291 292 294 294 294 294 295 295 296 296 296 294 294 294 292 292 293 292 293 292 292 292 293 293 294 293 293 293
Wind_Speed
14 7 3 4 5 4 4 4 5 8 7 6 6 2 2 5 3 5 5 3 9 8 8 8 9 8 7 7 8 7 7 7 7 7 9 10 10 11 12 12 12 12 13 12 13 14 14 14 14 13 12 12 12 9 7 11 9 9 10 15 14 13 14 14 13 11 9 7 7 8 10 12 11 11 9 11 9 9 8 8 6 7 7 6 6 5 5
3 11 4 4 4 4 4 1 4 7 6 6 7 6 8 7 6 2 7 11 10 6 6 7 7 7 7 7 6 7 9 9 9 9 10 10 11 11 12 12 12 12 12 12 13 14 14 15 15 14 12 12 11 10 10 2 12 9 10 13 14 12 12 12 11 11 10 8 7 7 9 9 10 10 10 8 8 8 8 7 7 6 6 6 5 5 6
5 7 1 3 3 3 4 4 7 7 9 5 9 9 13 13 3 5 9 10 6 4 5 6 6 6 6 6 9 10 10 10 10 10 11 11 12 12 12 12 12 12 13 13 14 15 16 16 16 14 13 10 10 11 8 9 8 3 12 14 14 13 12 12 12 11 10 9 8 8 8 8 9 9 9 8 6 7 7 7 7 7 6 6 6 6 6
5 3 3 2 3 3 4 9 8 10 9 7 8 7 9 11 9 9 3 1 3 4 5 7 7 8 9 10 10 10 10 11 11 12 12 12 12 12 13 13 13 13 13 15 16 17 16 15 15 14 13 10 10 8 7 10 9 9 11 9 11 12 13 14 13 13 11 10 9 8 8 9 10 10 10 9 6 5 6 6 6 6 6 7 6 6 6
5 6 6 4 5 4 4 8 8 8 6 6 5 8 11 12 12 7 4 6 6 6 5 7 8 9 10 10 10 9 10 11 11 11 12 12 12 13 13 13 14 13 13 14 15 15 14 13 14 15 13 11 10 9 9 9 10 12 11 12 13 13 13 12 13 12 10 10 9 9 8 8 8 9 10 10 9 9 8 5 4 4 5 6 7 7 6
1 5 6 5 5 6 2 3 5 4 5 7 6 7 9 10 11 6 5 7 7 7 6 7 8 9 10 10 11 11 9 9 10 11 12 12 11 12 13 13 13 13 13 13 14 15 14 11 11 11 12 10 8 8 8 9 11 11 12 12 13 13 12 12 11 11 11 11 10 8 7 8 9 9 10 9 8 7 7 8 9 8 8 7 7 6 6
3 5 8 4 5 1 4 4 7 5 4 6 5 8 11 11 11 11 10 10 10 9 9 9 10 11 12 13 13 13 12 10 10 10 12 12 12 13 13 14 14 15 14 15 16 15 13 12 10 8 10 10 8 9 10 11 10 12 12 13 14 14 13 12 12 12 12 12 10 9 8 8 9 9 8 7 8 5 5 6 6 7 7 7 6 6 7
3 4 3 4 2 4 6 4 9 8 2 7 1 6 12 12 10 7 7 7 7 9 9 9 9 10 11 13 15 14 13 12 10 10 10 11 11 12 11 12 13 14 15 15 15 13 10 11 11 11 10 9 10 11 11 13 13 14 14 15 15 14 15 13 12 12 12 12 11 10 9 8 10 9 8 7 7 6 7 6 7 6 6 7 7 6 6
3 3 1 4 8 8 7 3 8 8 5 6 4 2 7 11 8 8 4 6 6 7 8 8 8 8 8 11 12 12 13 12 11 12 12 11 11 11 11 12 12 11 12 13 13 12 12 11 11 10 9 9 9 11 13 12 13 13 15 16 14 13 14 13 12 11 9 10 10 10 9 9 8 8 8 8 7 5 6 6 6 6 4 5 6 6 6
4 1 4 5 6 4 5 5 5 5 4 2 2 1 4 11 10 7 4 6 4 5 8 8 8 6 5 9 8 11 11 11 10 11 11 11 11 10 10 10 11 11 11 12 13 13 13 12 11 9 9 9 10 12 12 12 12 12 14 13 12 12 11 10 9 9 10 10 10 8 9 9 8 7 7 6 6 5 5 5 6 6 5 5 6 5 5
3 6 4 3 2 5 5 7 7 6 3 1 3 3 3 8 9 8 4 4 6 7 6 3 5 4 4 5 5 7 9 9 9 10 10 10 9 9 10 10 11 11 12 13 13 14 14 15 14 11 11 11 11 12 13 12 13 13 12 12 11 11 10 9 9 9 9 10 10 9 8 8 7 6 6 5 6 6 5 6 6 6 5 5 6 6 6
5 4 2 3 5 5 8 9 8 7 4 2 3 3 4 7 9 9 6 5 6 5 4 6 8 4 6 5 2 7 7 8 8 9 10 9 9 10 10 10 10 11 12 13 14 15 15 14 13 13 11 11 12 11 12 11 12 12 11 10 9 9 8 7 7 7 8 9 9 9 8 7 7 6 5 5 5 5 5 5 5 4 4 4 5 5 4
3 7 5 6 5 4 11 9 8 4 1 3 2 4 4 5 6 7 6 8 7 7 7 5 6 6 7 5 4 7 8 9 10 10 10 11 11 11 11 10 10 10 11 12 12 12 11 12 12 12 11 11 12 12 11 12 12 10 8 7 6 6 7 8 10 10 9 9 9 8 7 7 6 6 6 5 5 5 5 4 4 4 4 4 4 3 2
1 2 5 7 5 4 11 9 6 5 4 1 4 3 3 5 6 6 8 9 9 11 11 9 9 7 6 7 8 9 9 10 10 10 11 11 10 10 11 11 10 10 11 12 13 13 12 12 11 10 10 11 11 10 10 11 9 8 8 8 8 8 8 9 9 8 8 7 7 6 7 6 5 5 5 4 4 4 3 4 4 3 2 3 3 3 3
2 2 5 4 4 6 15 14 2 11 2 4 2 6 8 8 8 9 10 10 10 12 12 10 9 8 8 8 9 8 8 9 9 9 9 10 10 10 10 11 11 10 10 12 12 11 10 11 10 9 10 10 10 9 11 10 8 7 7 7 8 8 8 8 9 9 8 8 7 6 6 6 4 4 4 4 3 3 3 4 4 4 4 4 4 4 3
3 7 5 5 3 6 10 10 6 7 7 4 4 5 7 7 7 8 8 10 10 11 12 11 10 9 10 10 10 10 8 7 7 7 7 8 7 7 9 9 9 10 10 11 11 11 9 8 9 9 9 9 9 9 10 7 6 6 6 7 7 7 7 7 7 7 7 8 7 6 6 5 5 4 3 3 3 2 1 2 3 3 3 2 3 3 3
4 5 5 3 1 5 8 9 10 10 10 10 10 9 8 8 8 9 10 12 10 10 12 11 10 9 7 7 7 7 7 7 7 7 6 6 6 6 6 6 7 8 9 10 10 9 9 9 8 8 8 9 9 10 8 8 8 8 8 7 7 7 8 7 6 7 7 6 6 5 5 4 4 3 2 1 2 1 1 1 2 3 2 2 2 2 3
16 13 9 8 10 11 12 10 9 10 10 10 9 10 11 11 11 10 10 10 11 11 10 9 8 8 7 8 8 8 8 7 6 5 6 5 6 5 5 5 6 7 7 7 9 9 9 10 9 8 8 8 9 8 8 8 7 7 7 8 8 8 7 7 7 7 5 6 6 5 4 4 4 3 2 2 2 2 2 2 2 2 2 1 2 2 2
3 7 8 13 13 13 14 14 13 13 12 12 11 12 12 12 11 11 10 10 10 9 8 9 9 8 7 7 6 7 7 7 7 7 6 6 6 5 6 4 4 6 6 7 8 8 9 8 8 8 9 9 8 7 7 7 8 8 8 7 7 7 7 6 6 7 8 6 4 5 5 5 5 4 4 4 4 5 5 3 2 2 2 2 3 3 2
10 10 12 12 12 11 11 10 11 13 13 13 12 11 12 12 11 11 10 10 10 8 9 8 8 8 8 8 6 7 7 7 6 6 5 5 5 7 7 7 6 6 7 8 8 8 7 7 6 6 6 7 7 7 7 8 8 8 8 8 7 7 7 7 6 6 6 3 4 5 5 6 6 6 6 6 6 7 7 7 6 6 5 5 5 5 4
13 15 13 13 13 13 12 12 13 12 11 12 13 12 12 12 12 11 10 9 10 10 9 8 8 8 8 8 7 7 7 7 8 8 6 5 5 4 5 5 7 8 8 8 8 7 7 6 7 7 7 7 7 6 6 6 6 7 7 7 8 9 8 8 7 6 6 6 5 4 5 6 7 8 7 7 6 7 9 7 7 6 6 6 6 6 5
8 8 8 7 7 8 10 12 12 12 12 12 12 12 12 11 11 11 11 10 9 9 8 8 8 8 7 7 7 6 5 5 4 4 3 4 6 5 4 4 5 5 6 6 7 7 7 7 6 6 7 6 7 7 6 6 6 5 4 4 5 6 7 7 7 6 6 6 5 5 4 3 7 6 6 7 7 5 6 7 8 8 8 6 6 6 5
7 7 8 9 11 11 10 10 9 9 9 10 10 10 10 10 10 9 9 9 9 8 7 7 8 7 6 6 6 6 5 5 4 4 3 3 3 3 3 2 3 4 5 4 4 6 5 6 6 7 7 7 6 6 7 6 6 6 7 5 5 5 5 5 5 6 5 5 5 5 4 4 2 5 7 4 6 9 9 7 7 8 8 7 7 8 6
12 10 9 9 9 10 10 9 9 9 8 8 9 8 8 8 8 7 7 7 7 7 6 6 5 6 6 6 5 5 4 4 4 5 5 4 4 2 2 3 4 5 5 4 4 4 5 5 5 5 6 5 7 7 7 7 7 7 7 7 7 6 5 5 3 5 4 5 5 4 4 3 3 4 1 6 6 4 6 9 8 7 7 7 7 7 6
10 9 10 10 11 10 8 8 8 7 8 8 8 7 6 6 6 5 5 5 5 5 5 4 4 4 4 3 3 5 6 7 4 4 7 6 2 4 3 3 2 1 1 3 4 5 5 5 5 5 6 5 5 6 6 6 7 6 7 7 8 9 8 7 6 5 6 5 5 4 4 4 3 3 4 5 3 4 5 4 4 3 4 5 5 7 6
10 10 10 9 9 8 7 8 7 7 7 7 7 6 5 7 6 3 5 5 4 4 5 4 3 2 1 4 5 5 6 6 4 7 2 5 5 4 4 4 4 4 5 5 4 4 3 4 7 6 5 5 4 4 5 5 5 5 5 6 6 7 8 7 8 4 5 6 6 5 5 3 4 5 5 4 4 6 2 5 3 2 2 1 2 3 6
11 10 10 9 7 7 5 4 6 5 6 5 5 6 6 6 3 2 5 4 4 4 4 4 4 3 4 5 4 6 7 2 2 1 5 4 4 4 5 5 7 8 7 6 6 2 5 3 6 6 5 3 3 3 3 2 3 4 4 5 4 2 4 8 7 6 6 5 5 4 4 5 4 3 3 3 3 3 5 6 4 2 6 3 4 9 4
6 3 3 5 6 7 7 7 6 5 4 5 4 3 5 4 4 4 4 4 3 3 3 2 2 2 1 1 2 3 3 1 5 4 4 4 4 5 6 7 7 7 7 8 8 8 6 6 6 7 6 4 2 3 4 3 3 2 2 3 3 2 3 5 7 5 4 5 6 5 5 4 4 4 3 3 3 4 4 4 3 5 2 5 7 5 8
6 7 7 8 7 7 6 6 5 4 4 3 2 4 3 3 3 3 3 2 2 1 2 1 0 1 2 1 1 2 2 1 2 4 4 5 5 5 6 7 8 8 7 7 7 6 7 7 6 6 6 5 5 4 4 4 3 3 3 3 3 3 3 3 4 3 3 2 3 6 5 3 1 1 2 2 3 4 3 3 3 4 3 4 4 6 5
6 6 6 6 7 7 6 5 5 4 4 3 3 1 1 1 1 2 3 3 2 1 1 1 2 2 2 2 1 2 2 2 1 2 3 4 5 6 7 8 8 8 7 8 7 7 7 6 6 6 6 6 7 6 4 4 4 4 4 4 3 1 4 7 7 8 4 1 3 3 3 4 2 2 2 3 4 3 2 1 3 2 5 4 3 5 4
5 4 5 4 3 3 4 4 3 3 2 1 0 1 1 1 2 2 2 2 2 2 1 3 3 3 2 4 4 3 3 3 4 3 4 4 4 5 6 7 7 7 7 8 8 8 8 9 9 8 7 6 6 7 5 4 5 4 5 4 1 6 4 4 7 6 6 2 1 2 2 2 2 3 3 4 3 3 3 3 2 2 4 4 4 4 4
7 5 4 4 3 3 2 2 1 1 1 1 2 2 3 4 5 5 4 5 4 4 4 4 3 3 3 3 3 4 5 1 1 2 1 3 2 1 3 6 6 7 7 7 6 6 7 8 8 8 8 7 7 7 6 6 5 5 4 3 4 5 3 3 4 6 5 4 1 3 2 2 1 1 1 2 2 1 2 1 1 1 1 1 2 3 4
4 5 5 3 4 3 1 1 2 0 1 0 1 3 4 5 6 6 5 4 5 4 4 3 3 2 3 2 3 3 3 4 2 1 1 0 1 2 2 5 7 7 7 6 6 7 7 7 7 7 7 7 8 8 6 6 6 5 5 5 3 3 6 5 3 3 5 5 1 3 1 1 2 1 0 1 1 2 1 0 0 0 0 1 1 2 4
5 6 5 5 6 4 2 0 0 1 0 1 2 3 4 3 4 4 5 4 4 4 3 2 2 3 3 3 1 3 3 2 3 3 2 2 1 2 3 5 7 8 7 7 8 7 6 6 7 6 6 7 8 8 7 6 6 5 4 3 3 3 4 3 7 6 3 3 1 4 2 2 3 2 3 3 1 2 1 1 0 0 0 2 1 4 5
3 4 4 3 1 1 2 4 2 1 2 3 2 3 3 3 5 4 3 6 4 3 2 2 2 3 2 1 1 1 2 3 2 4 5 3 3 2 4 6 8 8 8 7 7 7 7 7 6 5 5 6 8 8 7 6 5 4 3 4 5 4 3 3 3 3 3 4 3 2 2 1 2 4 1 3 0 1 1 0 1 1 0 0 0 3 5
2 2 2 3 2 2 1 2 1 2 2 3 3 4 4 2 5 4 4 3 2 2 1 0 2 3 2 2 3 4 4 3 1 0 2 4 3 2 3 6 8 8 7 7 6 5 7 5 8 4 4 7 6 6 6 5 5 4 3 4 4 4 3 2 3 4 2 2 3 2 5 4 4 4 3 1 1 2 1 0 0 0 0 0 0 1 2
3 2 2 1 1 2 2 2 2 3 4 4 5 5 6 6 6 5 5 5 2 2 3 3 3 2 1 3 2 2 3 2 2 2 3 3 2 1 2 3 8 8 6 7 5 4 5 5 4 3 2 5 3 2 2 5 3 2 3 3 3 3 4 3 2 3 4 1 1 0 5 2 3 4 3 2 1 2 2 0 1 1 0 1 1 2 2
3 3 2 2 2 2 2 3 3 5 4 5 5 5 4 5 5 5 4 5 4 5 3 4 4 4 4 3 2 3 3 3 2 0 1 1 1 1 4 6 5 5 4 3 6 4 3 4 2 2 3 2 3 4 5 5 4 4 4 1 1 1 4 4 3 4 3 3 1 4 3 1 1 1 1 1 0 1 2 1 0 0 1 1 2 2 2
2 1 1 1 3 1 2 3 3 3 4 4 5 5 4 5 5 5 5 4 3 3 3 4 3 4 4 4 4 4 4 5 4 2 2 2 3 4 4 7 7 5 3 5 5 4 4 3 2 3 4 5 5 4 6 4 1 5 4 2 2 3 4 4 3 4 2 2 3 5 5 3 1 1 0 1 0 2 1 1 1 1 2 2 2 1 2
1 2 2 1 3 2 3 3 4 3 4 4 4 5 4 4 5 4 4 4 3 2 5 3 3 4 5 5 5 4 6 7 5 5 4 3 6 6 7 9 5 1 4 1 5 1 6 4 3 5 4 2 3 1 5 4 1 3 4 3 3 3 4 3 3 4 4 3 2 4 2 2 1 1 0 1 2 1 0 2 3 2 1 1 2 2 2
2 2 3 3 3 3 4 4 4 4 4 5 4 5 5 5 5 5 5 5 6 5 4 5 4 5 6 5 5 4 3 3 6 7 7 6 6 7 5 5 2 2 3 3 6 3 2 4 4 5 4 3 3 8 6 3 3 3 5 4 3 2 4 4 3 4 4 3 3 5 1 2 1 1 3 3 2 2 2 2 1 2 2 2 2 2 2
3 3 3 4 4 4 4 4 5 6 5 5 5 5 5 5 5 5 5 5 6 5 5 7 4 6 8 7 7 5 6 5 4 5 6 6 6 4 3 5 3 5 7 3 5 5 5 6 5 6 1 4 3 4 3 3 4 5 6 5 6 6 5 4 4 4 4 4 5 4 4 2 1 2 2 3 2 2 2 2 2 2 2 2 2 2 2
3 3 3 4 4 4 5 5 5 6 7 6 5 5 5 5 5 5 5 5 5 5 5 8 4 6 6 7 7 7 7 5 6 6 6 6 6 6 6 5 4 7 7 0 5 5 5 3 3 4 7 6 2 8 5 4 4 5 5 6 5 4 3 3 4 4 4 4 3 4 3 3 2 1 2 2 2 3 2 2 2 2 2 2 2 2 2
3 4 4 4 5 5 5 6 6 6 6 6 6 5 6 6 6 6 6 6 6 6 7 7 6 6 6 6 6 6 6 6 5 5 5 5 6 8 7 5 2 7 4 2 4 4 4 4 3 7 11 8 7 7 5 5 5 6 6 6 5 4 3 4 4 4 4 4 3 5 2 1 1 2 2 2 2 2 2 2 2 3 2 2 2 2 1
4 4 3 4 5 4 5 5 6 6 5 6 7 6 6 6 6 6 7 7 7 6 6 7 7 7 6 6 6 6 6 6 2 1 6 5 3 4 6 1 2 4 4 2 4 4 5 3 8 8 6 6 5 4 5 6 6 6 6 5 5 4 4 3 4 5 5 4 3 3 4 3 3 2 3 2 3 2 2 3 2 3 3 3 2 2 2
4 4 3 3 5 5 4 4 5 6 6 6 6 6 6 6 5 5 6 6 6 6 6 6 7 7 7 7 7 7 6 7 6 6 4 5 5 2 6 1 4 7 6 3 3 5 4 8 7 6 6 4 4 5 6 7 7 6 6 5 5 5 4 3 5 5 5 4 4 4 4 3 3 3 3 3 2 2 2 3 3 3 3 3 4 3 3
2 3 3 3 3 3 3 3 4 6 7 7 6 5 4 4 5 5 6 6 6 6 6 6 6 6 6 6 6 6 4 5 5 6 5 4 3 1 8 8 8 7 5 3 2 3 4 3 5 4 4 5 5 6 7 7 7 6 6 6 5 5 5 4 5 5 5 5 4 2 4 6 5 2 3 1 2 2 2 3 3 3 2 3 3 2 3
3 3 3 3 3 4 5 5 6 6 6 6 5 5 5 5 5 6 6 5 5 5 5 5 5 5 4 5 4 4 4 5 2 5 6 2 4 1 4 4 6 5 3 3 3 2 6 5 5 4 4 4 5 6 6 6 6 5 5 5 4 5 5 5 5 5 4 5 4 4 4 4 3 5 2 3 2 2 2 2 3 3 2 2 2 2 3
3 3 3 3 3 4 4 4 5 5 5 4 5 4 4 4 5 5 4 4 5 5 5 4 4 4 4 3 4 5 3 2 4 3 3 3 3 3 6 9 8 7 5 5 3 3 5 4 3 4 4 5 5 5 6 5 5 5 4 4 4 3 3 5 5 4 3 4 4 5 4 3 3 3 3 3 3 3 5 4 3 3 3 3 3 4 2
3 3 4 3 3 3 4 4 5 4 3 4 4 4 3 4 4 2 2 3 2 3 3 4 5 2 3 3 3 4 3 2 2 3 3 3 3 4 4 5 5 6 4 6 3 3 7 6 5 4 4 5 5 5 5 4 4 3 3 4 4 4 4 3 7 4 3 4 5 5 4 3 3 3 3 3 2 3 3 3 4 3 8 1 4 3 2
3 4 3 2 3 3 2 3 4 3 4 4 3 4 4 4 3 3 3 4 5 4 4 3 6 7 4 7 6 4 2 2 1 4 4 2 2 3 5 1 5 5 5 4 4 2 4 6 3 4 5 5 5 4 4 3 4 4 3 3 4 5 3 2 5 5 5 4 5 5 5 5 5 4 3 3 3 3 4 4 4 3 4 5 4 3 3
3 3 3 3 3 3 3 3 3 2 2 3 3 3 3 3 3 3 1 2 3 4 4 4 4 5 7 3 4 10 4 3 1 3 2 0 3 1 4 2 3 4 4 5 5 5 5 2 7 4 4 3 3 1 4 2 4 3 3 3 2 3 2 1 2 2 2 3 4 5 5 5 4 3 3 3 3 4 3 3 3 3 3 4 5 4 4
Wind_Direction
313 298 262 179 186 224 244 256 304 304 314 314 326 353 307 315 274 287 58 89 107 104 76 69 55 56 61 49 42 36 36 34 38 41 39 36 32 28 26 24 22 21 23 17 15 17 12 5 2 356 357 358 358 353 158 164 177 170 155 153 151 149 143 142 143 125 114 111 116 131 154 163 161 160 163 177 180 166 165 159 173 167 164 159 172 171 146
289 272 237 227 217 184 211 5 340 348 342 321 2 5 341 355 331 22 85 88 78 64 68 54 50 45 55 56 51 46 39 31 29 37 39 37 35 33 29 26 24 26 24 21 21 21 17 11 1 0 360 2 355 349 346 342 170 162 161 140 141 143 140 132 128 125 116 103 100 112 125 145 158 158 167 171 169 160 161 158 165 153 154 155 160 150 163
282 256 181 245 229 160 131 57 26 2 338 15 28 19 12 351 12 58 124 116 93 68 59 66 62 59 60 58 51 46 41 36 36 39 40 38 37 35 33 29 29 30 29 26 25 25 20 15 10 3 1 353 346 339 353 1 17 153 158 144 138 141 134 131 130 127 127 125 122 125 116 122 126 142 157 157 152 154 154 153 148 145 149 150 149 151 144
229 262 257 249 242 208 134 62 36 12 14 17 12 34 19 7 355 338 267 106 109 115 97 79 66 62 60 57 53 49 40 39 42 46 44 40 37 36 34 33 30 29 31 31 29 27 21 18 14 8 359 352 346 324 7 30 18 14 46 80 110 127 140 131 119 127 125 127 125 121 115 112 107 97 85 86 104 123 127 132 136 145 153 153 145 121 98
224 194 220 193 235 242 207 45 16 356 25 15 26 55 34 23 347 4 40 65 86 115 111 92 74 69 60 51 46 49 51 46 46 48 45 43 39 35 35 35 34 35 38 38 36 31 30 23 20 13 2 359 338 342 35 42 50 40 48 63 66 59 60 82 106 107 109 116 101 95 91 88 88 86 89 90 85 80 70 61 80 125 137 121 105 102 98
241 186 184 197 224 226 78 46 21 1 26 20 24 38 28 22 8 359 41 77 97 115 103 92 83 68 58 51 43 38 43 46 49 50 47 43 42 44 45 43 42 43 43 43 38 32 22 13 16 15 15 2 341 351 20 46 53 55 61 59 66 66 71 74 87 94 92 80 73 63 67 79 81 82 83 77 66 62 72 75 74 69 64 75 85 87 84
269 194 187 206 240 110 120 91 37 30 55 26 51 61 41 29 16 13 54 62 67 72 85 91 91 83 72 55 50 41 38 43 47 46 44 41 40 45 43 43 44 45 47 46 42 33 24 16 7 17 19 4 6 26 32 45 49 59 66 75 70 71 70 61 67 78 76 83 75 68 61 65 68 68 66 67 65 47 40 50 64 69 67 61 70 81 80
234 187 152 209 107 138 188 85 33 15 56 10 262 97 44 30 20 7 62 59 77 89 99 104 100 93 80 64 48 40 39 40 45 49 48 44 42 42 37 40 40 42 43 41 38 31 23 26 24 21 15 360 16 26 34 45 56 61 64 62 66 66 64 59 60 63 69 71 71 65 56 54 67 68 57 47 55 56 64 60 49 53 86 111 109 108 102
265 271 146 85 131 115 47 38 16 21 13 346 13 42 55 26 19 5 65 95 103 105 106 123 125 114 98 64 43 31 28 34 47 55 57 53 50 49 46 44 46 41 37 34 25 23 26 28 30 26 15 13 22 30 37 35 36 39 55 58 55 52 55 51 54 58 60 67 68 67 64 63 62 67 74 66 56 49 67 66 71 51 26 69 101 107 103
245 234 142 143 193 143 79 36 26 23 10 325 266 241 118 33 24 24 54 87 95 119 124 131 144 148 72 53 37 22 28 29 44 52 55 54 52 52 53 47 43 37 34 34 34 29 27 30 32 27 16 20 24 33 35 36 38 35 35 35 39 44 47 44 44 47 53 57 62 62 67 72 72 75 72 69 65 50 66 75 74 74 66 44 56 73 84
313 240 233 240 139 70 24 15 6 7 352 326 186 239 120 25 19 27 54 112 132 131 133 96 342 260 83 75 43 14 27 33 40 60 59 62 64 62 55 47 41 40 37 33 34 35 31 28 21 27 30 27 30 35 32 32 39 39 36 34 32 37 40 41 39 38 45 54 59 52 47 52 52 59 59 70 87 90 82 71 75 75 69 67 66 65 55
251 337 295 75 47 70 9 358 5 358 336 221 235 236 89 5 22 17 36 96 128 139 79 56 34 26 124 98 64 331 27 53 44 49 55 53 49 49 53 55 51 41 36 37 33 26 27 28 23 25 35 40 41 36 31 30 33 33 34 35 32 35 39 42 51 54 53 57 59 58 55 51 48 50 54 60 70 80 76 79 74 82 102 78 72 63 49
106 104 109 118 108 62 2 359 356 17 337 225 267 4 11 1 24 25 27 40 37 52 55 55 81 27 50 83 59 34 44 56 54 51 53 56 51 50 48 50 54 57 49 38 37 36 25 26 27 26 29 39 43 44 41 38 32 26 26 38 46 44 41 43 44 50 52 56 56 53 55 56 54 57 54 52 52 66 70 66 72 69 71 85 91 110 94
261 247 107 90 82 31 347 343 343 10 277 328 38 48 34 33 45 40 50 63 71 80 73 77 82 81 76 87 83 80 59 52 47 52 51 48 48 46 49 44 46 55 55 52 39 30 34 32 29 28 31 43 48 48 53 55 51 42 38 37 43 52 58 55 53 51 51 58 70 64 52 43 49 69 75 74 73 86 105 110 118 114 140 150 142 134 133
199 170 118 106 67 32 359 327 265 15 5 62 85 94 66 58 63 67 74 82 83 86 85 76 81 83 81 82 89 86 81 77 68 61 51 41 34 31 31 36 35 46 56 56 58 50 26 29 33 34 36 45 48 48 52 52 56 59 58 58 51 49 54 59 59 54 47 47 51 61 76 78 64 61 75 84 83 100 132 147 152 163 171 173 168 155 146
10 55 55 55 16 325 355 23 57 44 62 77 101 104 77 74 74 78 80 78 83 84 93 97 94 92 89 82 85 91 92 96 93 81 77 72 59 49 49 40 30 31 44 49 52 48 51 44 39 35 37 41 40 48 51 50 49 45 45 54 56 54 54 54 58 60 61 55 45 44 50 64 70 50 52 76 88 86 120 164 147 147 139 158 169 151 138
43 67 76 49 32 44 47 50 71 70 65 67 67 79 89 91 87 93 87 83 80 87 93 94 98 103 105 105 104 101 102 97 90 89 92 90 83 74 72 67 55 44 44 44 44 47 43 48 54 55 50 38 34 38 34 38 44 43 41 43 50 54 52 55 58 62 62 62 62 57 52 46 64 85 83 100 104 108 148 146 152 159 162 158 154 130 129
89 83 87 95 88 78 76 74 74 76 75 75 85 91 94 94 99 97 99 101 93 89 90 95 95 98 109 106 103 98 99 104 115 127 118 122 121 107 93 85 78 77 71 60 54 49 40 34 35 36 49 55 45 32 30 33 36 42 47 46 42 48 58 55 46 48 52 73 69 52 71 83 73 50 53 76 94 132 132 106 89 74 73 78 77 74 85
108 74 82 81 87 92 87 83 81 81 80 86 93 94 96 104 105 104 103 104 104 100 99 97 106 110 111 120 128 121 114 104 93 81 75 68 69 73 60 91 118 82 66 64 60 56 57 48 38 32 33 36 39 37 37 37 39 36 32 40 54 47 41 46 60 61 44 13 43 65 33 42 51 44 37 42 41 32 27 33 64 87 93 74 84 91 83
83 107 102 94 87 82 87 87 88 86 87 91 94 103 109 111 111 104 101 101 101 103 100 101 92 81 68 62 50 52 50 56 78 86 87 81 68 47 27 21 22 38 42 48 51 48 47 49 51 47 40 43 46 37 35 35 34 37 39 28 30 36 46 51 37 36 61 351 336 71 63 47 38 29 30 31 51 42 22 12 3 16 25 44 38 31 24
102 107 107 105 97 89 88 87 83 91 100 102 104 108 111 113 113 113 111 109 108 108 108 109 101 91 87 85 78 65 54 49 32 21 23 56 80 74 66 45 25 25 24 26 24 28 34 27 33 29 32 34 35 47 47 54 42 38 37 36 36 35 30 26 28 27 34 38 37 33 72 92 68 48 36 26 34 66 49 28 26 11 8 34 25 13 2
110 113 117 126 109 101 90 84 86 91 98 106 108 112 113 118 119 121 118 114 112 114 121 116 115 121 117 107 106 103 97 93 104 85 50 20 20 39 43 45 44 46 32 22 19 11 14 6 10 19 15 27 25 24 30 30 31 33 44 59 57 55 45 36 16 11 27 26 27 37 27 68 114 90 30 39 37 41 77 81 68 49 40 42 14 356 356
101 95 92 88 94 98 92 97 97 93 92 95 97 100 106 109 111 109 112 116 121 119 111 106 102 94 91 88 82 80 75 64 59 74 70 47 76 69 42 27 50 44 41 33 8 11 4 357 360 5 360 2 10 17 18 13 21 8 12 9 43 52 54 50 34 4 34 30 20 19 29 15 31 136 138 106 90 101 110 131 120 119 114 107 69 31 13
94 99 108 109 106 105 109 106 109 109 106 97 97 98 99 105 110 114 112 110 99 93 95 83 76 88 104 110 113 102 90 85 69 38 43 69 98 111 70 39 24 10 5 360 5 359 1 355 359 355 349 360 356 351 359 359 9 3 10 12 7 11 22 25 62 32 22 43 18 21 11 17 27 352 42 129 126 112 124 131 133 126 126 120 114 105 71
101 95 94 99 102 106 106 102 89 82 79 83 91 94 96 108 115 110 115 110 112 107 96 85 87 70 65 66 56 60 67 75 75 128 131 106 39 20 38 43 7 352 360 349 339 339 344 351 338 348 338 348 347 347 352 355 7 2 6 7 6 3 355 358 358 25 13 28 20 360 5 352 21 48 21 1 46 127 121 98 82 70 72 89 107 104 84
98 100 97 99 103 103 106 106 91 82 94 94 89 84 71 45 5 95 100 112 121 116 95 93 97 100 36 47 43 42 87 66 5 290 307 11 9 17 8 352 345 322 330 328 325 303 309 338 333 328 329 348 355 334 332 338 348 354 1 4 14 17 358 346 318 353 23 9 6 1 356 26 22 360 23 6 9 355 116 154 144 110 122 40 16 108 107
105 109 114 106 100 99 105 105 99 94 89 94 90 92 99 118 231 96 98 102 108 115 113 107 83 46 45 54 57 37 23 14 225 320 9 4 16 4 352 337 342 341 323 302 299 25 106 304 275 277 295 316 324 315 296 317 329 332 349 340 354 75 301 310 325 6 15 5 350 357 348 348 14 11 37 7 5 8 6 2 3 156 152 159 204 228 154
96 118 141 110 112 117 123 113 114 118 111 108 124 98 80 96 99 117 114 109 109 107 100 97 112 144 140 78 9 147 189 302 11 360 346 359 15 351 351 357 334 318 321 316 310 306 291 288 302 308 294 281 261 251 271 266 264 275 286 308 313 292 257 259 290 353 16 3 347 344 341 12 7 4 352 359 346 7 358 360 351 345 358 125 131 132 120
90 76 80 86 85 91 99 111 124 112 95 77 75 99 132 126 124 105 108 97 99 113 139 138 106 341 331 103 281 344 10 24 331 353 342 353 6 359 350 333 331 321 306 303 295 288 293 296 288 279 286 286 280 277 276 264 240 254 272 287 300 310 316 322 336 333 18 3 30 358 349 334 322 314 345 349 351 341 351 357 352 331 324 23 63 144 175
105 110 100 106 132 132 129 124 108 109 122 115 114 117 81 308 109 137 145 181 180 222 282 261 257 253 296 300 294 303 312 328 354 341 351 352 13 354 344 336 326 318 313 298 315 329 313 283 260 266 281 295 295 280 249 246 243 240 263 257 252 323 355 358 336 331 300 303 92 130 262 263 282 296 333 351 355 335 333 355 350 318 318 49 36 344 352
86 71 76 70 63 104 112 108 119 109 118 136 99 275 170 266 276 260 248 244 258 282 279 292 292 320 281 288 300 285 293 335 350 352 352 16 26 10 342 334 330 332 329 322 321 320 318 319 316 305 299 287 278 276 275 256 252 224 235 249 41 65 60 329 321 324 334 353 74 193 241 290 334 8 352 335 341 344 343 351 9 353 345 346 353 356 354
139 141 154 152 122 98 99 128 131 134 125 243 257 282 336 302 289 297 298 289 292 257 257 262 260 259 287 272 272 284 287 346 271 319 20 64 55 346 317 326 325 313 305 313 307 305 300 296 289 289 289 280 267 251 251 252 242 236 237 257 175 162 134 244 266 258 284 305 214 197 191 263 256 275 283 320 321 339 346 24 9 343 333 342 347 8 6
141 165 161 160 163 178 170 120 293 139 181 139 326 317 313 313 312 296 289 269 260 268 265 266 274 267 275 304 280 292 80 80 68 69 101 72 295 293 289 310 312 311 304 301 306 295 296 295 293 293 285 283 288 268 243 240 237 222 222 232 214 170 157 197 298 291 237 248 297 10 321 181 238 232 182 353 309 312 347 341 114 162 108 354 347 77 39
42 31 39 21 352 350 358 30 163 300 65 42 344 321 298 308 289 281 274 282 283 267 267 255 267 23 7 348 14 71 97 156 214 187 183 214 247 271 280 286 303 308 306 299 288 303 306 303 297 287 281 272 263 263 251 231 229 218 216 230 266 226 224 202 201 241 286 291 165 137 237 211 246 235 168 190 283 346 346 314 358 326 126 171 186 111 120
50 53 39 29 26 322 319 297 326 332 353 332 345 313 317 343 323 335 359 304 282 279 274 279 85 81 72 77 89 122 172 211 66 120 163 197 194 231 278 309 309 311 307 308 303 307 322 309 302 297 277 246 250 243 236 240 220 217 214 217 229 240 241 269 287 303 321 305 309 260 276 297 207 152 230 304 40 245 245 72 355 42 75 183 242 130 128
48 65 62 58 47 341 174 270 26 308 301 285 308 299 305 341 309 327 302 291 330 305 253 235 85 109 124 152 179 188 215 221 194 171 170 189 190 219 281 308 316 310 312 304 305 5 321 34 63 30 310 284 243 221 209 213 216 215 225 228 227 248 241 256 288 282 251 299 327 312 72 58 33 14 341 257 216 274 311 34 75 115 146 68 68 36 106
46 23 50 305 53 334 3 303 331 319 317 320 316 307 310 306 297 304 300 282 274 302 294 273 243 215 191 217 241 196 199 217 224 206 182 163 184 221 268 279 292 293 295 297 24 17 347 59 46 22 264 243 240 179 111 43 246 230 238 238 247 247 257 255 254 278 300 284 276 220 121 159 224 205 186 238 253 302 307 312 123 138 69 45 54 69 67
49 40 49 349 7 272 296 304 318 285 288 285 290 295 315 314 306 295 290 291 281 261 263 274 284 276 159 158 192 206 217 224 234 195 84 339 245 252 278 286 291 299 315 342 356 339 41 110 150 252 209 212 191 204 131 121 349 295 267 252 245 305 284 279 281 294 297 331 310 271 272 306 288 244 193 211 181 263 308 5 358 146 120 101 79 76 67
124 173 177 104 261 301 309 281 261 276 289 294 302 309 331 321 309 308 295 297 316 291 252 271 303 303 280 227 215 180 191 203 199 186 179 217 244 255 275 286 286 298 345 2 334 311 119 136 264 242 235 215 203 134 120 130 254 281 301 317 17 305 261 265 301 302 304 325 315 351 315 330 333 303 305 204 162 275 325 34 251 175 174 131 123 105 98
229 320 346 315 291 317 299 295 295 297 295 293 289 307 312 297 307 314 310 304 298 303 290 278 275 273 274 269 267 250 184 168 176 179 198 220 238 262 281 282 271 77 87 78 278 44 91 91 250 262 288 18 309 226 129 92 258 289 280 282 193 218 257 282 288 285 286 295 160 193 258 89 3 331 322 269 241 255 209 170 184 171 137 145 132 116 119
291 291 311 311 295 287 282 291 288 285 286 293 321 316 300 305 308 304 302 298 282 263 264 273 268 269 270 292 302 308 319 165 184 196 197 213 237 255 274 293 3 89 104 45 357 24 145 249 250 252 245 341 332 24 52 47 291 269 274 270 257 249 273 267 266 274 285 278 269 243 278 99 116 193 196 210 214 213 205 208 196 171 180 156 161 137 124
302 315 297 288 292 285 283 287 295 293 286 289 279 279 283 286 289 294 297 291 288 293 286 281 272 283 303 311 305 292 272 268 255 231 209 227 251 269 276 289 320 96 111 136 173 214 212 212 217 244 235 108 217 116 131 232 256 254 255 247 240 228 232 239 250 267 279 292 288 272 119 107 137 196 200 224 215 205 208 220 207 175 148 155 159 162 143
299 295 295 285 286 290 280 277 271 281 291 287 286 280 277 275 278 280 281 287 288 286 278 273 221 187 237 253 262 271 275 273 266 262 257 240 244 257 274 296 321 110 139 7 309 303 283 267 225 224 149 180 170 143 186 243 268 271 267 266 273 272 227 225 242 247 270 273 255 272 157 138 176 193 192 221 207 198 193 204 207 170 164 174 162 139 144
286 275 275 285 286 304 315 299 290 282 278 287 293 290 278 275 275 273 277 277 277 273 278 276 278 275 270 265 267 267 268 263 263 265 249 248 226 211 218 259 71 106 138 308 273 282 293 285 321 105 143 146 118 171 217 243 245 245 256 269 266 236 238 228 237 250 245 251 249 272 247 171 208 184 201 203 209 192 186 203 190 175 166 153 139 152 155
266 281 290 308 314 291 273 291 303 312 306 293 285 279 280 279 279 276 275 276 281 284 274 276 283 283 281 277 268 262 263 277 254 296 280 270 283 310 131 91 223 168 137 208 288 283 280 42 92 112 131 145 158 189 237 251 256 269 287 280 270 263 245 237 241 251 256 261 262 266 273 203 197 180 203 221 235 196 174 199 180 172 164 172 155 184 177
252 238 240 217 243 275 323 309 304 296 289 291 289 289 285 281 275 282 282 283 285 283 285 286 283 280 276 270 263 265 259 262 273 273 264 286 299 59 101 311 49 73 134 199 292 293 58 85 97 113 137 159 170 214 242 247 262 268 259 255 263 261 252 236 239 241 246 240 241 234 231 238 226 221 203 196 190 215 180 195 185 186 179 180 196 184 175
255 266 256 261 301 291 275 289 291 288 295 294 297 296 291 288 284 280 285 287 285 289 288 284 277 279 275 268 266 251 220 250 276 274 254 243 231 193 105 98 110 127 164 232 304 352 51 98 105 117 154 173 217 242 241 245 246 251 259 268 269 257 245 242 245 237 243 249 250 268 14 333 303 227 176 236 194 200 189 199 212 197 189 194 177 170 215
302 287 283 300 296 321 321 298 297 293 290 298 301 294 297 293 287 290 285 281 275 276 277 273 266 256 263 276 257 264 279 260 126 262 265 271 293 170 186 220 147 138 189 233 264 141 101 93 105 155 158 179 216 238 249 260 269 266 273 276 274 277 279 248 234 230 235 239 236 230 228 214 236 277 231 193 214 214 207 207 216 212 201 203 200 197 194
233 277 321 293 276 271 272 291 281 281 302 301 279 292 324 318 307 290 289 283 280 265 255 266 265 290 272 243 276 277 239 255 303 318 55 343 337 320 88 104 114 143 212 240 231 142 116 127 141 171 173 229 242 240 250 254 260 272 278 285 292 290 277 271 266 246 231 235 228 235 245 238 234 240 255 220 222 207 195 204 217 220 203 206 212 217 199
267 252 243 258 296 295 317 314 310 328 316 298 323 344 353 325 307 321 311 299 310 334 341 297 286 259 274 249 197 236 225 274 269 287 323 310 289 277 272 245 158 178 250 296 294 131 132 151 159 179 218 224 240 259 270 280 286 276 276 262 258 261 280 354 3 357 253 218 217 222 237 246 252 243 272 270 243 247 221 203 221 98 47 296 212 212 215
232 238 270 313 298 310 328 299 315 329 311 342 360 326 331 314 344 342 347 346 317 310 315 14 28 337 348 337 335 277 226 215 181 5 303 296 313 9 352 303 143 175 212 240 278 245 167 186 184 174 208 237 262 264 271 285 283 269 248 259 254 257 237 184 243 237 235 231 218 219 235 243 254 249 214 225 233 239 253 228 217 220 216 222 223 217 212
253 277 284 280 289 306 309 324 319 298 318 322 324 324 325 329 336 311 70 57 312 308 62 41 64 12 349 44 72 322 295 36 325 155 187 301 318 219 139 268 247 164 216 234 245 263 287 99 118 180 259 272 274 265 124 116 257 271 266 244 245 243 234 243 193 211 223 221 240 250 252 249 246 241 238 246 240 225 235 241 231 225 220 222 230 232 224